Regional Weather Roundup
Issued by NWS

Home | Current Version | Previous Version | Graphics & Text | Print | Product List | Glossary On
Versions: 1 2 3 4 5 6 7 8 9 10 11 12 13 14 15 16 17 18 19 20 21 22 23 24 25 26 27 28 29 30 31 32 33 34 35 36 37 38 39 40 41 42 43 44 45 46 47 48 49 50
363
ASUS43 KMKX 291021
RWRWI

WISCONSIN REGIONAL WEATHER ROUNDUP
NATIONAL WEATHER SERVICE MILWAUKEE/SULLIVAN WI
500 AM CDT FRI APR 29 2016

NOTE: "FAIR" INDICATES FEW OR NO CLOUDS BELOW 12,000 FEET WITH NO
SIGNIFICANT WEATHER AND/OR OBSTRUCTIONS TO VISIBILITY.

WIZ001-002-006>008-014>016-023>028-291100-
NORTHWEST WISCONSIN

CITY           SKY/WX    TMP DP  RH WIND       PRES   REMARKS
SUPERIOR ARPT  CLOUDY    26  26  98 CALM      30.19S
ASHLAND        CLOUDY    27  26  96 W5        30.17R WCI  22
HAYWARD        CLOUDY    28  24  85 CALM      30.15R
SIREN          CLOUDY    28  27  96 CALM      30.17R
CUMBERLAND     MOCLDY    32  28  86 CALM      30.15S
RICE LAKE      MOCLDY    37  32  84 CALM      30.17R
CHETEK         CLOUDY    39  37  91 NW3       30.15F
LADYSMITH      CLOUDY    40  37  87 CALM      30.15S
EAU CLAIRE     CLOUDY    40  38  93 N3        30.14S
MENOMONIE      CLOUDY    39  39 100 N5        30.15F
NEW RICHMOND   CLOUDY    36  36  99 CALM      30.16S
OSCEOLA        FOG       37  37 100 CALM      30.19S VSB 3/4
$$

WIZ003>005-009-010-017-018-291100-
NORTH CENTRAL WISCONSIN

CITY           SKY/WX    TMP DP  RH WIND       PRES   REMARKS
MANITOWISH WTR CLOUDY    35  35 100 CALM      30.12R
ARBOR VITAE    CLOUDY    39  37  93 CALM      30.12R
WOODRUFF       CLOUDY    39  37  93 CALM      30.12R
RHINELANDER    LGT RAIN  37  35  92 CALM      30.11S
EAGLE RIVER    DRIZZLE   37  36  94 CALM      30.11S
LAND O LAKES   CLOUDY    37  33  84 CALM      30.13R
PHILLIPS       CLOUDY    38  35  89 CALM      30.12R
TOMAHAWK       CLOUDY    36  35  96 CALM      30.12S
MEDFORD        CLOUDY    36  36 100 CALM      30.11S
MERRILL        CLOUDY    37  37 100 CALM      30.12S
$$

WIZ029-030-035-036-043>047-291100-
CENTRAL WISCONSIN

CITY           SKY/WX    TMP DP  RH WIND       PRES   REMARKS
WAUSAU         CLOUDY    40  35  83 N6        30.09S
MOSINEE        CLOUDY    36  36 100 N6        30.11S WCI  31
MARSHFIELD     CLOUDY    39  35  86 N5        30.10S
STEVENS POINT  CLOUDY    35  34  96 N5        30.11S WCI  31
WAUPACA        CLOUDY    41  35  80 N5        30.10R
WAUTOMA        NOT AVBL
WISC RAPIDS    CLOUDY    39  34  82 N8        30.11F WCI  33
CAMP DOUGLAS   MOCLDY    37  37 100 W5        30.10S WCI  33
$$

WIZ011>013-019>022-031-037>040-048>050-291100-
NORTHEAST WISCONSIN

CITY           SKY/WX    TMP DP  RH WIND       PRES   REMARKS
ANTIGO         CLOUDY    36  35  97 N7        30.10S WCI  30
SHAWANO        CLOUDY    40  36  84 N5        30.10S
OCONTO         CLOUDY    40  36  86 NW3       30.09S
STURGEON BAY   CLOUDY    39  30  70 CALM      30.11S
GREEN BAY      LGT RAIN  41  36  82 NE6       30.08S
MANITOWOC      LGT RAIN  39  36  89 S6        30.08S WCI  35
APPLETON       LGT RAIN  37  32  81 N5        30.07R WCI  34
CLINTONVILLE   CLOUDY    37  34  87 N5        30.09S WCI  34
OSHKOSH        CLOUDY    42  34  73 CALM      30.07R
$$

WIZ032>034-041-042-053>061-291100-
SOUTHWEST WISCONSIN

CITY           SKY/WX    TMP DP  RH WIND       PRES   REMARKS
LA CROSSE      CLOUDY    40  36  86 NW7       30.13R
SPARTA         CLOUDY    38  37  97 CALM      30.12S
VIROQUA        CLOUDY    37  37 100 N5        30.10S WCI  33
BOSCOBEL       CLOUDY    42  39  89 CALM      30.11R
PRAIRIE DU CHI CLOUDY    41  37  85 CALM      30.12R
PLATTEVILLE    CLOUDY    40  39  96 N7        30.08S
$$

WIZ056-057-062-063-064-067-068-291100-
SOUTH CENTRAL WISCONSIN

CITY           SKY/WX    TMP DP  RH WIND       PRES   REMARKS
REEDSBURG      CLOUDY    37  36  95 CALM      30.09S
BARABOO/DELLS  CLOUDY    37  35  94 CALM      30.09S
LONE ROCK      CLOUDY    41  38  89 N6        30.11R FOG
MINERAL POINT  CLOUDY    41  39  93 N7        30.08S FOG
MADISON        CLOUDY    39  37  92 N9        30.07S WCI  33
MIDDLETON      CLOUDY    40  39  93 N6        30.08S
WATERTOWN      CLOUDY    39  39 100 NW5       30.07R
MONROE         CLOUDY    37  37 100 N6        30.06S WCI  33
JANESVILLE     CLOUDY    41  41 100 N6        30.06R
$$

WIZ051-052-058>065-066-070>072-291100-
SOUTHEAST WISCONSIN

CITY           SKY/WX    TMP DP  RH WIND       PRES   REMARKS
MILWAUKEE      CLOUDY    40  38  93 N5        30.05R
WAUKESHA       CLOUDY    36  36 100 N3        30.06S
MILWAUKEE/TIMM CLOUDY    37  36  93 N5        30.06S WCI  34
RACINE         CLOUDY    40  37  89 N7        30.06S
BURLINGTON     CLOUDY    39  38  99 N3        30.05S
KENOSHA        CLOUDY    40  38  93 N7        30.05R
FOND DU LAC    LGT RAIN  40  36  86 NE3       30.07R
SHEBOYGAN      LGT RAIN  39  36  89 N3        30.07R
WEST BEND      CLOUDY    37  36  93 CALM      30.06R
JUNEAU         CLOUDY    37  36  94 NW3       30.08R
$$

LSZ147-162-291100-
LAKE SUPERIOR

STATION/POSITION TIME  TEMP    WIND        PRES    WAVE
                       AIR SEA DIR/SP/G            HT/PER
                 (UTC) (F)     (DEG/KT/KT) (MB)    (FT/S)
W MID LAKE BUOY  0950   37 36  350/  8/ 10 1022.3R   1/ 4
DEVILS ISLAND    1000   38      30/  9/ 10 1022.4R
SAXON HARBOR     0900   30     180/  4/  8 1020.7R
$$

LMZ867-665-643>646-291100-
LAKE MICHIGAN

STATION/POSITION TIME  TEMP    WIND        PRES    WAVE
                       AIR SEA DIR/SP/G            HT/PER
                 (UTC) (F)     (DEG/KT/KT) (MB)    (FT/S)
CHAMBERS ISLAND  0900   40      10/  8/ 10 1019.3R
N MID LAKE BUOY  0950   39 38   50/  8/  8 1019.5R   1/ 3
NORTHPORT PIER   0900   40      20/  4/  5 1019.3R
ALGOMA LAKESHORE 0915           10/  3/  5   N/A
KEWAUNEE LAKESHO 0900   41     260/  2/  4 1017.9R
SHEBOYGAN LAKESH 1000   40      40/  8/  8 1019.0R
PORT WASHINGTON  0900   41     360/  2/  5 1018.6S
S MID LAKE BUOY  0950   40 40   40/ 10/ 10 1017.1R   1/ 3
KENOSHA   LAKESH 1000   41      10/ 13/ 14 1017.3S
$$

TC  - TEMPERATURE IN CELSIUS
VSB - VISIBILITY IN STATUTE MILES
WCI - WIND CHILL INDEX
HX  - HEAT INDEX





USA.gov is the U.S. government's official web portal to all federal, state and local government web resources and services.